Orbital Elements at Epoch 2459200.5 (2020-Dec-17.0) TDB
Reference: JPL 29 (heliocentric ecliptic J2000)
Element | Value | Uncertainty (1-sigma) | Units |
e | .3462140240325636 | 3.3054e-08 | |
a | 1.288002647544368 | 1.1086e-09 | au |
q | .8420780679734368 | 4.2395e-08 | au |
i | 13.90413344105365 | 1.4929e-05 | deg |
node | 355.3028266585233 | 1.3117e-05 | deg |
peri | 264.2016684074165 | 1.7574e-05 | deg |
M | 257.098158284466 | 1.2767e-05 | deg |
tp | 2459353.113941008497 (2021-May-18.61394101) | 1.9025e-05 | TDB |
period | 533.9167681268517 1.46 | 6.8935e-07 1.887e-09 | d yr |
n | .6742623972327999 | 8.7056e-10 | deg/d |
Q | 1.733927227115299 | 1.4925e-09 | au |
|
| | Orbit Determination Parameters
Additional Information
|